Weather History for Sumter, SC

Change the Weather History Date:

Tuesday, November 20, 2012

  Actual Average Record
Temperature  
Mean Temperature 50 °F -  
Max Temperature 62 °F 67 °F 73 °F (2011)
Min Temperature 39 °F 40 °F 35 °F (2010)
Degree Days  
Heating Degree Days 14    
Moisture  
Dew Point 45 °F    
Average Humidity 85    
Maximum Humidity 100    
Minimum Humidity 55    
Precipitation  
Precipitation 0.00 in - - ()
Sea Level Pressure  
Sea Level Pressure 30.12 in    
Wind  
Wind Speed 4 mph (NNE)    
Max Wind Speed 10 mph    
Max Gust Speed -    
Visibility 9 miles    
Events      
Averages and records for this station are not official NWS values.
T = Trace of Precipitation, MM = Missing Value Source: NWS Daily Summary

Daily Weather History Graph

Daily Weather History Graph

Search for Another Location

Airport:

Trip Planner

Search our weather history database for the weather conditions in past years. The results will help you decide how hot, cold, wet, or windy it might be!

Date:

Astronomy

Nov. 20, 2012 Rise Set
Actual Time 6:59 AM EST 5:15 PM EST
Civil Twilight 6:32 AM EST 5:41 PM EST
Nautical Twilight 6:01 AM EST 6:12 PM EST
Astronomical Twilight 5:31 AM EST 6:42 PM EST
Moon 12:42 PM EST (11/20) No Moon Set
Length of Visible Light 11h 09m
Length of Day
10h 15m
Waxing Crescent, 51% of the Moon is Illuminated
Nov 20
Waxing Crescent
Nov 28
Full
Dec 6
Last Quarter
Dec 13
New
Dec 20
First Quarter

Hourly Weather History & Observations

Time (EST) Temp. Windchill Dew Point Humidity Pressure Visibility Wind Dir Wind Speed Gust Speed Precip Events Conditions
12:15 AM 48.2 °F - 44.6 °F 87% 30.17 in 10.0 mi North 5.8 mph - N/A   Clear
12:35 AM 48.2 °F - 44.6 °F 87% 30.16 in 10.0 mi North 5.8 mph - N/A   Clear
12:55 AM 48.2 °F - 44.6 °F 87% 30.16 in 10.0 mi North 4.6 mph - N/A   Clear
1:15 AM 48.2 °F - 44.6 °F 87% 30.16 in 10.0 mi North 3.5 mph - N/A   Clear
1:35 AM 46.4 °F 45.2 °F 44.6 °F 93% 30.15 in 10.0 mi North 3.5 mph - N/A   Clear
1:55 AM 46.4 °F 44.3 °F 44.6 °F 93% 30.15 in 10.0 mi NNW 4.6 mph - N/A   Clear
2:15 AM 46.4 °F - 44.6 °F 93% 30.15 in 10.0 mi Calm Calm - N/A   Clear
2:35 AM 46.4 °F 44.3 °F 42.8 °F 87% 30.15 in 10.0 mi North 4.6 mph - N/A   Clear
2:55 AM 44.6 °F 42.2 °F 42.8 °F 93% 30.15 in 10.0 mi North 4.6 mph - N/A   Clear
3:15 AM 44.6 °F 41.4 °F 42.8 °F 93% 30.15 in 10.0 mi North 5.8 mph - N/A   Clear
3:35 AM 46.4 °F 42.9 °F 44.6 °F 93% 30.14 in 10.0 mi NNE 6.9 mph - N/A   Clear
7:15 AM 42.8 °F 39.3 °F 42.8 °F 100% 30.18 in 10.0 mi North 5.8 mph - N/A   Partly Cloudy
7:35 AM 44.6 °F 41.4 °F 44.6 °F 100% 30.18 in 10.0 mi NE 5.8 mph - N/A   Mostly Cloudy
7:55 AM 44.6 °F 40.7 °F 44.6 °F 100% 30.18 in 10.0 mi NE 6.9 mph - N/A   Overcast
8:15 AM 46.4 °F 42.9 °F 46.4 °F 100% 30.18 in 7.0 mi NE 6.9 mph - N/A   Overcast
8:35 AM 46.4 °F 44.3 °F 46.4 °F 100% 30.17 in 7.0 mi NE 4.6 mph - N/A   Overcast
8:55 AM 46.4 °F 44.3 °F 46.4 °F 100% 30.17 in 8.0 mi North 4.6 mph - N/A   Overcast
9:15 AM 48.2 °F - 48.2 °F 100% 30.18 in 9.0 mi NNW 4.6 mph - N/A   Overcast
9:35 AM 48.2 °F - 46.4 °F 93% 30.18 in 10.0 mi North 5.8 mph - N/A   Overcast
9:55 AM 50.0 °F - 46.4 °F 87% 30.18 in 10.0 mi Calm Calm - N/A   Mostly Cloudy
10:15 AM 50.0 °F - 46.4 °F 87% 30.18 in 10.0 mi North 5.8 mph - N/A   Partly Cloudy
10:35 AM 51.8 °F - 46.4 °F 82% 30.17 in 10.0 mi NNE 5.8 mph - N/A   Clear
10:55 AM 53.6 °F - 46.4 °F 77% 30.16 in 10.0 mi NNE 5.8 mph - N/A   Clear
11:15 AM 55.4 °F - 48.2 °F 77% 30.16 in 10.0 mi Calm Calm - N/A   Clear
11:35 AM 57.2 °F - 48.2 °F 72% 30.15 in 10.0 mi NNE 6.9 mph - N/A   Clear
11:55 AM 59.0 °F - 48.2 °F 67% 30.14 in 10.0 mi NNE 8.1 mph - N/A   Clear
12:15 PM 59.0 °F - 48.2 °F 67% 30.13 in 10.0 mi North 9.2 mph - N/A   Clear
12:35 PM 59.0 °F - 48.2 °F 67% 30.12 in 10.0 mi North 6.9 mph - N/A   Clear
12:55 PM 60.8 °F - 48.2 °F 63% 30.11 in 10.0 mi North 5.8 mph - N/A   Clear
1:15 PM 59.0 °F - 48.2 °F 67% 30.10 in 10.0 mi North 8.1 mph - N/A   Clear
1:35 PM 60.8 °F - 46.4 °F 59% 30.09 in 10.0 mi North 5.8 mph - N/A   Clear
2:15 PM 62.6 °F - 46.4 °F 55% 30.08 in 10.0 mi North 8.1 mph - N/A   Clear
2:35 PM 60.8 °F - 46.4 °F 59% 30.08 in 10.0 mi NNE 9.2 mph - N/A   Clear
2:55 PM 62.6 °F - 46.4 °F 55% 30.08 in 10.0 mi NE 5.8 mph - N/A   Clear
3:15 PM 62.6 °F - 46.4 °F 55% 30.07 in 10.0 mi NNE 10.4 mph - N/A   Clear
3:35 PM 62.6 °F - 46.4 °F 55% 30.07 in 10.0 mi North 4.6 mph - N/A   Clear
3:55 PM 62.6 °F - 46.4 °F 55% 30.07 in 10.0 mi NE 8.1 mph - N/A   Clear
4:15 PM 60.8 °F - 46.4 °F 59% 30.06 in 10.0 mi NNE 6.9 mph - N/A   Clear
4:35 PM 60.8 °F - 46.4 °F 59% 30.07 in 10.0 mi NNE 3.5 mph - N/A   Clear
4:55 PM 59.0 °F - 46.4 °F 63% 30.07 in 10.0 mi NNE 3.5 mph - N/A   Clear
5:15 PM 57.2 °F - 46.4 °F 67% 30.07 in 10.0 mi Calm Calm - N/A   Clear
5:35 PM 55.4 °F - 46.4 °F 72% 30.07 in 10.0 mi Calm Calm - N/A   Clear
5:55 PM 51.8 °F - 46.4 °F 82% 30.07 in 10.0 mi Calm Calm - N/A   Clear
6:15 PM 50.0 °F - 48.2 °F 94% 30.08 in 10.0 mi Calm Calm - N/A   Clear
6:35 PM 50.0 °F - 46.4 °F 87% 30.08 in 10.0 mi Calm Calm - N/A   Clear
6:55 PM 48.2 °F - 46.4 °F 93% 30.09 in 10.0 mi Calm Calm - N/A   Clear
7:15 PM 46.4 °F - 46.4 °F 100% 30.09 in 10.0 mi Calm Calm - N/A   Clear
7:35 PM 46.4 °F - 46.4 °F 100% 30.10 in 10.0 mi Calm Calm - N/A   Clear
7:55 PM 44.6 °F - 44.6 °F 100% 30.10 in 5.0 mi Calm Calm - N/A   Clear
8:15 PM 44.6 °F - 44.6 °F 100% 30.10 in 6.0 mi Calm Calm - N/A   Clear
8:35 PM 44.6 °F - 44.6 °F 100% 30.10 in 8.0 mi Calm Calm - N/A   Clear
8:55 PM 42.8 °F - 42.8 °F 100% 30.10 in 9.0 mi Calm Calm - N/A   Clear
9:15 PM 41.0 °F - 41.0 °F 100% 30.10 in 1.8 mi Calm Calm - N/A   Clear
9:35 PM 41.0 °F - 41.0 °F 100% 30.10 in 8.0 mi Calm Calm - N/A   Clear
9:55 PM 41.0 °F - 41.0 °F 100% 30.10 in 7.0 mi Calm Calm - N/A   Clear
10:15 PM 41.0 °F - 41.0 °F 100% 30.10 in 8.0 mi Calm Calm - N/A   Clear
10:35 PM 41.0 °F - 41.0 °F 100% 30.10 in 5.0 mi Calm Calm - N/A   Clear
10:55 PM 41.0 °F - 41.0 °F 100% 30.10 in 5.0 mi Calm Calm - N/A   Clear
11:15 PM 39.2 °F - 39.2 °F 100% 30.11 in 7.0 mi Calm Calm - N/A   Clear
11:35 PM 39.2 °F - 39.2 °F 100% 30.11 in 10.0 mi Calm Calm - N/A   Clear
11:55 PM 39.2 °F - 39.2 °F 100% 30.11 in 9.0 mi Calm Calm - N/A   Clear